histry.seeds
33.0000 TLOS
.0000 TLOS in REX

0.0000

UNSTAKED

33.0000 TLOS

STAKED

NET 0.0000 / CPU 0.0000

UNSTAKING

0.23 ms. / 0.03 hr.

CPU 27.00 TLOS

0.37 KB / 0.18 GB

BANDWIDTH 6.00 TLOS

2,477.49 KB / 4,814.95 KB

MEMORY USAGE 51.45 %
TOKENS
VOTES
Showing 1 to 200 entries
ACTIONS
DATE BLOCK TRX TYPE DATA
2020-11-28T21:43:55.500 123433710 2068c9... trxentry from: yogatierra11 {quantity=5.0000 SEEDS, to=join.seeds}
2020-11-28T21:39:40.000 123433199 0ec041... trxentry from: newdex {quantity=0.0002 SEEDS, to=fees.newdex}
2020-11-28T21:39:40.000 123433199 11c872... trxentry from: newdex {quantity=0.1048 SEEDS, to=capeshoveler}
2020-11-28T21:38:41.500 123433082 7b81a1... trxentry from: goliathheron {quantity=0.1050 SEEDS, to=newdex}
2020-11-28T21:34:07.500 123432534 3e9541... trxentry from: harvst.seeds {quantity=300.0000 SEEDS, to=system.seeds}
2020-11-28T21:34:07.500 123432534 3e9541... trxentry from: fleuredevie5 {quantity=300.0000 SEEDS, to=harvst.seeds}
2020-11-28T21:26:28.000 123431615 ef46f8... trxentry from: yogatierra11 {quantity=5.0000 SEEDS, to=fleuredevie5}
2020-11-28T21:25:00.000 123431439 dde397... trxentry from: harvst.seeds {quantity=45.0000 SEEDS, to=system.seeds}
2020-11-28T21:25:00.000 123431439 dde397... trxentry from: yogatierra11 {quantity=45.0000 SEEDS, to=harvst.seeds}
2020-11-28T21:18:56.000 123430711 ada450... trxentry from: fleuredevie5 {quantity=50.0000 SEEDS, to=yogatierra11}
2020-11-28T21:15:47.000 123430333 d4eafc... trxentry from: harvst.seeds {quantity=5.0000 SEEDS, to=system.seeds}
2020-11-28T21:15:47.000 123430333 d4eafc... trxentry from: join.seeds {quantity=5.0000 SEEDS, to=harvst.seeds}
2020-11-28T21:15:34.500 123430308 475421... trxentry from: harvst.seeds {quantity=5.0000 SEEDS, to=system.seeds}
2020-11-28T21:15:34.500 123430308 475421... trxentry from: join.seeds {quantity=5.0000 SEEDS, to=harvst.seeds}
2020-11-28T21:15:34.500 123430308 475421... trxentry from: join.seeds {quantity=45.0000 SEEDS, to=yogatierra11}
2020-11-28T21:04:22.000 123428963 b8f6c8... trxentry from: fleuredevie5 {quantity=50.0000 SEEDS, to=join.seeds}
2020-11-28T20:51:01.500 123427362 16e517... trxentry from: harvst.seeds {quantity=1000.0000 SEEDS, to=system.seeds}
2020-11-28T20:51:01.500 123427362 16e517... trxentry from: originalogos {quantity=1000.0000 SEEDS, to=harvst.seeds}
2020-11-28T20:48:40.000 123427079 ef96a3... trxentry from: markflowfarm {quantity=57703.6000 SEEDS, to=originalogos}
2020-11-28T20:40:42.000 123426123 d0a233... trxentry from: kapishdutta1 {quantity=5.0000 SEEDS, to=join.seeds}
2020-11-28T20:35:23.500 123425486 04c540... trxentry from: newdex {quantity=0.0273 SEEDS, to=capeshoveler}
2020-11-28T20:35:23.500 123425486 3cd8c7... trxentry from: newdex {quantity=0.0001 SEEDS, to=fees.newdex}
2020-11-28T20:35:11.500 123425462 1ec4c2... trxentry from: lannerfalcon {quantity=0.0274 SEEDS, to=newdex}
2020-11-28T19:35:12.000 123418263 d53069... trxentry from: tlosto.seeds {quantity=83455.4875 SEEDS, to=fleuredevie5}
2020-11-28T17:55:38.500 123406316 ec8a49... trxentry from: harvst.seeds {quantity=876.0000 SEEDS, to=system.seeds}
2020-11-28T17:55:38.500 123406316 ec8a49... trxentry from: gradinagruiu {quantity=876.0000 SEEDS, to=harvst.seeds}
2020-11-28T17:44:55.000 123405029 a28daa... trxentry from: newdex {quantity=0.0001 SEEDS, to=fees.newdex}
2020-11-28T17:44:55.000 123405029 15297b... trxentry from: newdex {quantity=0.0463 SEEDS, to=goliathheron}
2020-11-28T17:43:56.500 123404912 96252b... trxentry from: capeshoveler {quantity=0.0464 SEEDS, to=newdex}
2020-11-28T17:41:20.500 123404600 fd5512... trxentry from: harvst.seeds {quantity=5.0000 SEEDS, to=system.seeds}
2020-11-28T17:41:20.500 123404600 fd5512... trxentry from: join.seeds {quantity=5.0000 SEEDS, to=harvst.seeds}
2020-11-28T17:41:20.500 123404600 fd5512... trxentry from: join.seeds {quantity=50.0000 SEEDS, to=mitramartin1}
2020-11-28T17:36:09.000 123403977 3ad118... trxentry from: harvst.seeds {quantity=18780.0000 SEEDS, to=system.seeds}
2020-11-28T17:36:09.000 123403977 3ad118... trxentry from: happyoxms122 {quantity=18780.0000 SEEDS, to=harvst.seeds}
2020-11-28T17:34:45.500 123403810 514f6f... trxentry from: tlosto.seeds {quantity=18780.0578 SEEDS, to=happyoxms122}
2020-11-28T17:26:49.000 123402857 018d0d... trxentry from: harvst.seeds {quantity=200.0000 SEEDS, to=system.seeds}
2020-11-28T17:26:49.000 123402857 018d0d... trxentry from: sempervivum1 {quantity=200.0000 SEEDS, to=harvst.seeds}
2020-11-28T17:12:08.000 123401095 3bbcef... trxentry from: harvst.seeds {quantity=5.0000 SEEDS, to=system.seeds}
2020-11-28T17:12:08.000 123401095 3bbcef... trxentry from: join.seeds {quantity=5.0000 SEEDS, to=harvst.seeds}
2020-11-28T17:12:08.000 123401095 3bbcef... trxentry from: join.seeds {quantity=15.0000 SEEDS, to=thecatalyzer}
2020-11-28T16:52:11.500 123398702 110956... trxentry from: harvst.seeds {quantity=1000.0000 SEEDS, to=system.seeds}
2020-11-28T16:52:11.500 123398702 110956... trxentry from: hedevndekker {quantity=1000.0000 SEEDS, to=harvst.seeds}
2020-11-28T16:50:39.000 123398517 36b042... trxentry from: hedevndekker {quantity=7.0000 SEEDS, to=gradinagruiu}
2020-11-28T16:45:04.500 123397848 28483e... trxentry from: hedevndekker {quantity=7.0000 SEEDS, to=join.seeds}
2020-11-28T16:17:53.000 123394585 548335... trxentry from: harvst.seeds {quantity=9000.0000 SEEDS, to=system.seeds}
2020-11-28T16:17:53.000 123394585 548335... trxentry from: mikexspsc135 {quantity=9000.0000 SEEDS, to=harvst.seeds}
2020-11-28T16:09:19.000 123393557 72c9ab... trxentry from: tlosto.seeds {quantity=2033.3883 SEEDS, to=hedevndekker}
2020-11-28T15:50:57.000 123391353 168a93... trxentry from: harvst.seeds {quantity=5.0000 SEEDS, to=system.seeds}
2020-11-28T15:50:57.000 123391353 168a93... trxentry from: join.seeds {quantity=5.0000 SEEDS, to=harvst.seeds}
2020-11-28T15:50:57.000 123391353 168a93... trxentry from: join.seeds {quantity=95.0000 SEEDS, to=sandrdmvt254}
2020-11-28T15:38:20.000 123389839 e49f82... trxentry from: inhabit4love {quantity=111.0000 SEEDS, to=aquafloraben}
2020-11-28T15:37:18.500 123389716 b7fc17... trxentry from: markflowfarm {quantity=1000.0000 SEEDS, to=kinshipearth}
2020-11-28T15:35:57.000 123389553 aea7c9... trxentry from: harvst.seeds {quantity=200.0000 SEEDS, to=system.seeds}
2020-11-28T15:35:57.000 123389553 aea7c9... trxentry from: orgs.seeds {quantity=200.0000 SEEDS, to=harvst.seeds}
2020-11-28T15:35:57.000 123389553 aea7c9... trxentry from: markflowfarm {quantity=200.0000 SEEDS, to=orgs.seeds}
2020-11-28T15:12:44.000 123386767 487da4... trxentry from: pedrocabajum {quantity=500.0000 SEEDS, to=manueptxx533}
2020-11-28T15:10:35.500 123386510 978873... trxentry from: walterfritha {quantity=50.0000 SEEDS, to=join.seeds}
2020-11-28T15:09:03.000 123386325 33fb66... trxentry from: harvst.seeds {quantity=5.0000 SEEDS, to=system.seeds}
2020-11-28T15:09:03.000 123386325 33fb66... trxentry from: join.seeds {quantity=5.0000 SEEDS, to=harvst.seeds}
2020-11-28T15:02:20.500 123385520 633b66... trxentry from: pedrocabajum {quantity=5.0000 SEEDS, to=join.seeds}
2020-11-28T14:45:47.000 123383533 f2cc13... trxentry from: pedrocabajum {quantity=500.0000 SEEDS, to=juanalgij554}
2020-11-28T14:42:21.000 123383121 b9168a... trxentry from: harvst.seeds {quantity=5.0000 SEEDS, to=system.seeds}
2020-11-28T14:42:21.000 123383121 b9168a... trxentry from: join.seeds {quantity=5.0000 SEEDS, to=harvst.seeds}
2020-11-28T14:36:00.500 123382360 3f26c2... trxentry from: pedrocabajum {quantity=5.0000 SEEDS, to=join.seeds}
2020-11-28T13:29:20.000 123374359 08ac0c... trxentry from: newdex {quantity=0.0001 SEEDS, to=fees.newdex}
2020-11-28T13:29:20.000 123374359 bc1d19... trxentry from: newdex {quantity=0.0467 SEEDS, to=wattledcrane}
2020-11-28T13:28:22.500 123374244 93986e... trxentry from: squaccoheron {quantity=0.0468 SEEDS, to=newdex}
2020-11-28T13:26:17.500 123373994 03f4aa... trxentry from: harvst.seeds {quantity=5.0000 SEEDS, to=system.seeds}
2020-11-28T13:26:17.500 123373994 03f4aa... trxentry from: join.seeds {quantity=5.0000 SEEDS, to=harvst.seeds}
2020-11-28T13:26:17.500 123373994 03f4aa... trxentry from: join.seeds {quantity=995.0000 SEEDS, to=diegomebd122}
2020-11-28T13:07:55.000 123371789 83f45b... trxentry from: communityfnd {quantity=6250.0000 SEEDS, to=chirandu1234}
2020-11-28T12:56:19.500 123370398 b0211e... trxentry from: harvst.seeds {quantity=5.0000 SEEDS, to=system.seeds}
2020-11-28T12:56:19.500 123370398 b0211e... trxentry from: join.seeds {quantity=5.0000 SEEDS, to=harvst.seeds}
2020-11-28T12:26:50.000 123366859 c28b62... trxentry from: newdex {quantity=0.0003 SEEDS, to=fees.newdex}
2020-11-28T12:26:49.500 123366858 7af907... trxentry from: newdex {quantity=0.1267 SEEDS, to=wattledcrane}
2020-11-28T12:25:53.000 123366745 a54d74... trxentry from: martialeagle {quantity=0.1270 SEEDS, to=newdex}
2020-11-28T12:19:42.000 123366003 2de08e... trxentry from: harvst.seeds {quantity=90.0000 SEEDS, to=system.seeds}
2020-11-28T12:19:42.000 123366003 2de08e... trxentry from: lioana454522 {quantity=90.0000 SEEDS, to=harvst.seeds}
2020-11-28T12:19:30.000 123365979 722e35... trxentry from: harvst.seeds {quantity=1900.0000 SEEDS, to=system.seeds}
2020-11-28T12:19:30.000 123365979 722e35... trxentry from: lioana454522 {quantity=1900.0000 SEEDS, to=harvst.seeds}
2020-11-28T11:43:43.000 123361685 156959... trxentry from: redpermie445 {quantity=200.0000 SEEDS, to=fafi1xfgr231}
2020-11-28T11:30:58.500 123360156 12c527... trxentry from: dao.hypha {quantity=615687.4300 SEEDS, to=escrow.seeds}
2020-11-28T10:47:37.500 123354954 1f42b7... trxentry from: harvst.seeds {quantity=5.0000 SEEDS, to=system.seeds}
2020-11-28T10:47:37.500 123354954 1f42b7... trxentry from: join.seeds {quantity=5.0000 SEEDS, to=harvst.seeds}
2020-11-28T10:47:37.500 123354954 1f42b7... trxentry from: join.seeds {quantity=15.0000 SEEDS, to=syoyfssqi434}
2020-11-28T09:48:00.500 123347800 a94844... trxentry from: harvst.seeds {quantity=5.0000 SEEDS, to=system.seeds}
2020-11-28T09:48:00.500 123347800 a94844... trxentry from: join.seeds {quantity=5.0000 SEEDS, to=harvst.seeds}
2020-11-28T09:48:00.500 123347800 a94844... trxentry from: join.seeds {quantity=45.0000 SEEDS, to=bbvhruagb544}
2020-11-28T09:42:02.000 123347083 2618b8... trxentry from: jemouocst345 {quantity=50.0000 SEEDS, to=join.seeds}
2020-11-28T09:35:58.500 123346356 cd51b2... trxentry from: join.seeds {quantity=8.0000 SEEDS, to=christelos55}
2020-11-28T09:22:40.500 123344760 9a1e6c... trxentry from: harvst.seeds {quantity=5.0000 SEEDS, to=system.seeds}
2020-11-28T09:22:40.500 123344760 9a1e6c... trxentry from: jemouocst345 {quantity=5.0000 SEEDS, to=harvst.seeds}
2020-11-28T09:22:26.000 123344731 7f10c3... trxentry from: christelos55 {quantity=8.0000 SEEDS, to=join.seeds}
2020-11-28T09:09:52.000 123343223 53389d... trxentry from: christelos55 {quantity=8.0000 SEEDS, to=join.seeds}
2020-11-28T09:07:15.000 123342909 4e6eee... trxentry from: christelos55 {quantity=10.0000 SEEDS, to=join.seeds}
2020-11-28T08:57:10.500 123341700 e04c0a... trxentry from: avivafloripa {quantity=20.0000 SEEDS, to=hbussacos123}
2020-11-28T08:55:54.500 123341548 dd3b6d... trxentry from: harvst.seeds {quantity=5.0000 SEEDS, to=system.seeds}
2020-11-28T08:55:54.500 123341548 dd3b6d... trxentry from: join.seeds {quantity=5.0000 SEEDS, to=harvst.seeds}
2020-11-28T08:51:48.000 123341055 e75984... trxentry from: gradinagruiu {quantity=5.0000 SEEDS, to=join.seeds}
2020-11-28T08:22:15.500 123337510 4e066c... trxentry from: newdex {quantity=0.0001 SEEDS, to=fees.newdex}
2020-11-28T08:22:15.000 123337509 fe6d15... trxentry from: newdex {quantity=0.0264 SEEDS, to=maraboustork}
2020-11-28T08:22:06.500 123337492 a9e39f... trxentry from: harvst.seeds {quantity=1980.0000 SEEDS, to=system.seeds}
2020-11-28T08:22:06.500 123337492 a9e39f... trxentry from: treesforall1 {quantity=1980.0000 SEEDS, to=harvst.seeds}
2020-11-28T08:22:05.000 123337489 715fc0... trxentry from: wattledcrane {quantity=0.0265 SEEDS, to=newdex}
2020-11-28T08:21:32.000 123337423 bdb3c4... trxentry from: harvst.seeds {quantity=10.0000 SEEDS, to=system.seeds}
2020-11-28T08:21:32.000 123337423 bdb3c4... trxentry from: treesforall1 {quantity=10.0000 SEEDS, to=harvst.seeds}
2020-11-28T08:20:22.500 123337284 e1d702... trxentry from: harvst.seeds {quantity=5.0000 SEEDS, to=system.seeds}
2020-11-28T08:20:22.500 123337284 e1d702... trxentry from: treesforall1 {quantity=5.0000 SEEDS, to=harvst.seeds}
2020-11-28T08:00:13.000 123334865 0b9265... trxentry from: frescanature {quantity=500.0000 SEEDS, to=vidaverdeorg}
2020-11-28T07:51:31.000 123333821 12d49b... trxentry from: harvst.seeds {quantity=5.0000 SEEDS, to=system.seeds}
2020-11-28T07:51:31.000 123333821 12d49b... trxentry from: join.seeds {quantity=5.0000 SEEDS, to=harvst.seeds}
2020-11-28T07:51:31.000 123333821 12d49b... trxentry from: join.seeds {quantity=1995.0000 SEEDS, to=treesforall1}
2020-11-28T07:40:30.500 123332500 c24834... trxentry from: harvst.seeds {quantity=20.0000 SEEDS, to=system.seeds}
2020-11-28T07:40:30.500 123332500 c24834... trxentry from: vladlausevic {quantity=20.0000 SEEDS, to=harvst.seeds}
2020-11-28T06:55:01.000 123327041 c632ae... trxentry from: newdex {quantity=0.0001 SEEDS, to=fees.newdex}
2020-11-28T06:55:00.500 123327040 27bb69... trxentry from: newdex {quantity=0.0350 SEEDS, to=wattledcrane}
2020-11-28T06:54:49.500 123327018 1fdbea... trxentry from: martialeagle {quantity=0.0351 SEEDS, to=newdex}
2020-11-28T06:52:20.000 123326719 da6b18... trxentry from: josephula251 {quantity=6.0000 SEEDS, to=plenty4all33}
2020-11-28T06:49:05.000 123326329 0b7b14... trxentry from: olgasxswm132 {quantity=5.0000 SEEDS, to=josephula251}
2020-11-28T06:38:55.000 123325109 d39769... trxentry from: plenty4all33 {quantity=5.0000 SEEDS, to=olgasxswm132}
2020-11-28T06:27:41.500 123323762 0b9acd... trxentry from: harvst.seeds {quantity=2.0000 SEEDS, to=system.seeds}
2020-11-28T06:27:41.500 123323762 0b9acd... trxentry from: olgasxswm132 {quantity=2.0000 SEEDS, to=harvst.seeds}
2020-11-28T06:26:51.500 123323662 bf3fa2... trxentry from: plenty4all33 {quantity=3.0000 SEEDS, to=olgasxswm132}
2020-11-28T06:24:29.000 123323377 da2c48... trxentry from: harvst.seeds {quantity=5.0000 SEEDS, to=system.seeds}
2020-11-28T06:24:29.000 123323377 da2c48... trxentry from: join.seeds {quantity=5.0000 SEEDS, to=harvst.seeds}
2020-11-28T06:19:06.500 123322732 db1ba3... trxentry from: gebhardbeckj {quantity=2.0000 SEEDS, to=plenty4all33}
2020-11-28T06:12:50.500 123321980 bc1402... trxentry from: harvst.seeds {quantity=2.0000 SEEDS, to=system.seeds}
2020-11-28T06:12:50.500 123321980 bc1402... trxentry from: alfoykrgm441 {quantity=2.0000 SEEDS, to=harvst.seeds}
2020-11-28T06:10:31.500 123321702 0f63fb... trxentry from: plenty4all33 {quantity=4.0000 SEEDS, to=alfoykrgm441}
2020-11-28T06:07:44.000 123321367 509747... trxentry from: gezdomjrgige {quantity=4500.0000 SEEDS, to=lukskywalker}
2020-11-28T06:03:58.500 123320916 23850f... trxentry from: harvst.seeds {quantity=5.0000 SEEDS, to=system.seeds}
2020-11-28T06:03:58.500 123320916 23850f... trxentry from: join.seeds {quantity=5.0000 SEEDS, to=harvst.seeds}
2020-11-28T05:49:37.500 123319194 7ed10f... trxentry from: cometogether {quantity=10694.0000 SEEDS, to=letsplantsds}
2020-11-28T05:41:44.000 123318247 34391a... trxentry from: harvst.seeds {quantity=2.0000 SEEDS, to=system.seeds}
2020-11-28T05:41:44.000 123318247 34391a... trxentry from: josephula251 {quantity=2.0000 SEEDS, to=harvst.seeds}
2020-11-28T05:36:48.500 123317656 78adc6... trxentry from: harvst.seeds {quantity=5.0000 SEEDS, to=system.seeds}
2020-11-28T05:36:48.500 123317656 78adc6... trxentry from: join.seeds {quantity=5.0000 SEEDS, to=harvst.seeds}
2020-11-28T05:36:48.500 123317656 78adc6... trxentry from: join.seeds {quantity=15.0000 SEEDS, to=zahraindigos}
2020-11-28T05:10:07.500 123314454 42d52c... trxentry from: dangermouse1 {quantity=1000.0000 SEEDS, to=join.seeds}
2020-11-28T04:59:34.000 123313187 b318c8... trxentry from: harvst.seeds {quantity=5.0000 SEEDS, to=system.seeds}
2020-11-28T04:59:34.000 123313187 b318c8... trxentry from: join.seeds {quantity=5.0000 SEEDS, to=harvst.seeds}
2020-11-28T04:47:11.000 123311701 22a906... trxentry from: kennyroykeys {quantity=5.0000 SEEDS, to=join.seeds}
2020-11-28T04:45:22.000 123311483 35f916... trxentry from: kennyroykeys {quantity=5.0000 SEEDS, to=levyjoseabac}
2020-11-28T04:27:39.500 123309358 edeab4... trxentry from: harvst.seeds {quantity=5.0000 SEEDS, to=system.seeds}
2020-11-28T04:27:39.500 123309358 edeab4... trxentry from: join.seeds {quantity=5.0000 SEEDS, to=harvst.seeds}
2020-11-28T04:27:39.500 123309358 edeab4... trxentry from: join.seeds {quantity=15.0000 SEEDS, to=mikkeltth411}
2020-11-28T04:05:12.000 123306663 0a5c15... trxentry from: newdex {quantity=0.0417 SEEDS, to=lannerfalcon}
2020-11-28T04:05:12.000 123306663 ac97b9... trxentry from: newdex {quantity=0.0001 SEEDS, to=fees.newdex}
2020-11-28T04:04:11.000 123306541 78dd66... trxentry from: wattledcrane {quantity=0.0418 SEEDS, to=newdex}
2020-11-28T03:51:30.000 123305019 c231df... trxentry from: dangermouse1 {quantity=100.0000 SEEDS, to=join.seeds}
2020-11-28T03:18:23.000 123301045 f0da08... trxentry from: harvst.seeds {quantity=5.0000 SEEDS, to=system.seeds}
2020-11-28T03:18:23.000 123301045 f0da08... trxentry from: join.seeds {quantity=5.0000 SEEDS, to=harvst.seeds}
2020-11-28T03:18:23.000 123301045 f0da08... trxentry from: join.seeds {quantity=15.0000 SEEDS, to=sheebasen111}
2020-11-28T02:39:26.500 123296373 2c339b... trxentry from: newdex {quantity=0.0342 SEEDS, to=goliathheron}
2020-11-28T02:39:26.500 123296373 56b808... trxentry from: newdex {quantity=0.0001 SEEDS, to=fees.newdex}
2020-11-28T02:38:26.500 123296253 18b019... trxentry from: maraboustork {quantity=0.0343 SEEDS, to=newdex}
2020-11-28T02:26:50.000 123294860 06e9a5... trxentry from: harvst.seeds {quantity=5.0000 SEEDS, to=system.seeds}
2020-11-28T02:26:50.000 123294860 06e9a5... trxentry from: join.seeds {quantity=5.0000 SEEDS, to=harvst.seeds}
2020-11-28T02:26:50.000 123294860 06e9a5... trxentry from: join.seeds {quantity=95.0000 SEEDS, to=dustyjandals}
2020-11-28T01:41:49.500 123289459 3b7c6b... trxentry from: suprachocola {quantity=5.0000 SEEDS, to=localscaling}
2020-11-28T01:40:49.000 123289338 6f33b6... trxentry from: localscaling {quantity=50.0000 SEEDS, to=suprachocola}
2020-11-28T01:38:54.000 123289108 527c47... trxentry from: harvst.seeds {quantity=5.0000 SEEDS, to=system.seeds}
2020-11-28T01:38:54.000 123289108 527c47... trxentry from: suprachocola {quantity=5.0000 SEEDS, to=harvst.seeds}
2020-11-28T01:36:14.000 123288788 ca9563... trxentry from: harvst.seeds {quantity=5.0000 SEEDS, to=system.seeds}
2020-11-28T01:36:14.000 123288788 ca9563... trxentry from: join.seeds {quantity=5.0000 SEEDS, to=harvst.seeds}
2020-11-28T01:36:14.000 123288788 ca9563... trxentry from: join.seeds {quantity=5.0000 SEEDS, to=suprachocola}
2020-11-28T01:33:28.500 123288457 de4303... trxentry from: newdex {quantity=0.0913 SEEDS, to=wattledcrane}
2020-11-28T01:33:28.500 123288457 a38d10... trxentry from: newdex {quantity=0.0002 SEEDS, to=fees.newdex}
2020-11-28T01:33:16.000 123288432 62ef06... trxentry from: maraboustork {quantity=0.0915 SEEDS, to=newdex}
2020-11-28T01:29:46.500 123288013 2fc809... trxentry from: harvst.seeds {quantity=100.0000 SEEDS, to=system.seeds}
2020-11-28T01:29:46.500 123288013 2fc809... trxentry from: erikthered21 {quantity=100.0000 SEEDS, to=harvst.seeds}
2020-11-28T01:28:27.000 123287854 006524... trxentry from: harvst.seeds {quantity=50.0000 SEEDS, to=system.seeds}
2020-11-28T01:28:27.000 123287854 006524... trxentry from: erikthered21 {quantity=50.0000 SEEDS, to=harvst.seeds}
2020-11-28T01:25:49.000 123287538 d536a1... trxentry from: tlosto.seeds {quantity=2885.3877 SEEDS, to=erikthered21}
2020-11-28T01:24:45.500 123287411 cba299... trxentry from: harvst.seeds {quantity=5.0000 SEEDS, to=system.seeds}
2020-11-28T01:24:45.500 123287411 cba299... trxentry from: join.seeds {quantity=5.0000 SEEDS, to=harvst.seeds}
2020-11-28T01:24:45.500 123287411 cba299... trxentry from: join.seeds {quantity=15.0000 SEEDS, to=alacritas333}
2020-11-28T01:24:07.000 123287334 631a06... trxentry from: thecatalyzer {quantity=20.0000 SEEDS, to=join.seeds}
2020-11-28T01:23:31.000 123287262 cc22b3... trxentry from: thecatalyzer {quantity=20.0000 SEEDS, to=join.seeds}
2020-11-28T01:22:52.500 123287185 7c53f4... trxentry from: thecatalyzer {quantity=20.0000 SEEDS, to=join.seeds}
2020-11-28T01:22:11.500 123287103 7f1813... trxentry from: thecatalyzer {quantity=20.0000 SEEDS, to=join.seeds}
2020-11-28T01:21:32.000 123287024 142d19... trxentry from: thecatalyzer {quantity=20.0000 SEEDS, to=join.seeds}
2020-11-28T01:20:28.500 123286897 2e69cc... trxentry from: thecatalyzer {quantity=20.0000 SEEDS, to=join.seeds}
2020-11-28T01:20:28.500 123286897 f97b76... trxentry from: dao.hypha {quantity=13722.5840 SEEDS, to=escrow.seeds}
2020-11-28T01:20:28.500 123286897 f97b76... trxentry from: dao.hypha {quantity=14643.2176 SEEDS, to=escrow.seeds}
2020-11-28T01:20:28.500 123286897 f97b76... trxentry from: dao.hypha {quantity=15126.4432 SEEDS, to=escrow.seeds}
2020-11-28T01:20:28.500 123286897 f97b76... trxentry from: dao.hypha {quantity=6409.2544 SEEDS, to=escrow.seeds}
2020-11-28T01:19:54.000 123286828 3936b0... trxentry from: harvst.seeds {quantity=5.0000 SEEDS, to=system.seeds}
2020-11-28T01:19:54.000 123286828 3936b0... trxentry from: join.seeds {quantity=5.0000 SEEDS, to=harvst.seeds}
2020-11-28T01:19:54.000 123286828 3936b0... trxentry from: join.seeds {quantity=15.0000 SEEDS, to=erikthered21}
2020-11-28T01:19:47.000 123286814 e4c97e... trxentry from: thecatalyzer {quantity=20.0000 SEEDS, to=join.seeds}
2020-11-28T01:18:33.000 123286666 9d00e7... trxentry from: thecatalyzer {quantity=20.0000 SEEDS, to=join.seeds}
2020-11-28T01:17:46.000 123286572 8c07c4... trxentry from: thecatalyzer {quantity=20.0000 SEEDS, to=join.seeds}
2020-11-28T01:16:59.500 123286479 ee4e1f... trxentry from: thecatalyzer {quantity=20.0000 SEEDS, to=join.seeds}
2020-11-28T01:15:59.000 123286358 4701f7... trxentry from: thecatalyzer {quantity=20.0000 SEEDS, to=join.seeds}
2020-11-28T01:15:01.000 123286242 1a60f0... trxentry from: thecatalyzer {quantity=20.0000 SEEDS, to=join.seeds}
2020-11-28T01:13:56.000 123286112 dd105d... trxentry from: thecatalyzer {quantity=20.0000 SEEDS, to=join.seeds}
2020-11-28T01:13:14.000 123286028 7c009c... trxentry from: thecatalyzer {quantity=20.0000 SEEDS, to=join.seeds}
2020-11-28T01:12:29.000 123285938 f3c68d... trxentry from: thecatalyzer {quantity=20.0000 SEEDS, to=join.seeds}
2020-11-28T01:11:36.000 123285832 d047a3... trxentry from: thecatalyzer {quantity=20.0000 SEEDS, to=join.seeds}